Regional Weather Roundup
Issued by NWS Midland/Odessa, TX

Home | Current Version | Previous Version | Text Only | Print | Product List | Glossary On
Versions: 1 2 3 4 5 6 7 8 9 10 11 12 13 14 15 16 17 18 19 20 21 22 23 24 25 26 27 28 29 30 31 32 33 34 35 36 37 38 39 40 41 42 43 44 45 46 47 48 49 50
000
ASUS44 KMAF 302210
RWRMAF
MIDLAND AREA WEATHER ROUNDUP
NATIONAL WEATHER SERVICE MIDLAND TX
500 PM CDT SUN AUG 30 2015

...IN SOUTHWEST TEXAS AND SOUTHEAST NEW MEXICO...

CITY           SKY/WX    TMP DP  RH WIND       PRES   REMARKS
ALPINE         PTSUNNY   85  49  27 E7        30.15F
ANDREWS        FAIR      87  52  29 CALM      30.05F
ARTESIA        SUNNY     90  46  22 E9        30.05F
BIG SPRING     MOSUNNY   90  55  30 SE7       30.04F
CARLSBAD       SUNNY     92  49  22 E10       30.03F
DRYDEN           N/A     92  54  27 VRB5      29.98F
FORT STOCKTON  MOSUNNY   90  48  23 SE8       30.02F
GUAD PASS      SUNNY     82  48  30 E15G23    30.19F
HOBBS          SUNNY     86  48  26 SE6       30.08F
MARFA          MOSUNNY   84  48  28 E5        30.14F
MIDLAND AIRPK  MOSUNNY   92  49  23 S5        30.03F
MIDLAND INTL   MOSUNNY   91  51  25 SE8G17    30.02F
ODESSA         MOSUNNY   90  49  24 S10       30.04F
PECOS          SUNNY     93  48  21 CALM      29.98F
PRESIDIO       NOT AVBL
SEMINOLE       SUNNY     89  48  24 S3        30.06F
SNYDER         MOSUNNY   90  52  27 W3        30.01F
WINK           MOSUNNY   93  49  22 SE7G17    30.00F
$$
...OTHER STATIONS IN TEXAS...

CITY           SKY/WX    TMP DP  RH WIND       PRES   REMARKS
ABILENE        MOSUNNY   93  56  28 SW7       29.98F
AMARILLO       SUNNY     87  53  31 S6        30.05F HAZE
AUSTIN         PTSUNNY   91  62  37 S7G20     29.94F
BROWNSVILLE    PTSUNNY   87  76  69 E6        29.94F
CORPUS CHRISTI MOSUNNY   92  69  47 SE15G26   29.93F
DALLAS FTW     PTSUNNY   95  55  26 CALM      29.92F
DEL RIO        PTSUNNY   94  57  28 CALM      29.92F
EL PASO        MOSUNNY   92  49  22 E7        30.04F
HOUSTON INT    PTSUNNY   88  66  48 SE5       29.96F
LUBBOCK        MOSUNNY   89  49  25 CALM      30.04F
SAN ANGELO     MOSUNNY   91  56  30 NE7       29.99F
SAN ANTONIO    MOSUNNY   92  60  34 NE10      29.95F
WACO           PTSUNNY   86  65  49 NW8       29.96F
WICHITA FALLS  NOT AVBL
$$
...OTHER LOCATIONS IN NEW MEXICO...

CITY           SKY/WX    TMP DP  RH WIND       PRES   REMARKS
ALAMAGORDO     MOSUNNY   90  48  24 SE6       30.06F
ALBUQUERQUE    MOSUNNY   90  41  18 CALM      30.12F
CANNON AFB     SUNNY     88  44  21 VRB5      30.08F
CLOVIS         SUNNY     88  46  23 S12       30.09F
HOLLOMAN AFB   MOSUNNY   91  51  25 N3        30.03F
ROSWELL        SUNNY     92  37  14 SE10      30.05F
RUIDOSO        MOSUNNY   77  46  33 MISG      30.28F
SANTA FE       PTSUNNY   83  45  26 W13       30.19F
TRUTH OR CONSE SUNNY     91  47  21 VRB5      30.08F
TUCUMCARI      SUNNY     92  51  24 S10       30.03F
$$



USA.gov is the U.S. government's official web portal to all federal, state and local government web resources and services.